Wind_Speed
18 17 16 15 15 15 15 14 12 12 10 10 10 12 14 14 14 12 10 8 6 6 7 7 6 6 7 9 8 7 7 6 3 2 5 7 7 8 8 7 7 7 8 8 9 9 9 10 9 9 9 9 9 9 9 9 9 9 9 9 9 10 9 9 9 9 10 10 11 11 10 10 10 9 9 9 8 8 8 8 7 6 5 4 4
16 16 15 15 15 14 14 13 12 12 11 10 10 12 13 14 13 9 7 7 6 7 8 6 6 5 5 6 6 7 8 7 7 2 5 9 8 8 9 8 9 9 9 9 9 10 10 10 10 10 10 9 9 9 9 9 9 10 10 10 10 10 9 9 9 9 10 10 10 10 10 9 9 8 8 8 7 7 7 7 7 6 6 5 5
14 14 13 13 14 13 13 13 14 14 12 10 10 11 13 15 12 7 7 7 6 7 8 7 7 7 7 6 5 5 7 9 10 4 4 8 9 9 10 11 10 10 10 10 10 10 10 10 10 10 10 9 9 9 9 10 10 10 10 10 10 9 9 9 9 9 9 10 10 9 9 9 8 7 7 7 6 6 6 6 6 6 6 6 6
13 12 12 11 11 13 16 15 14 15 12 10 11 12 13 14 11 7 7 7 6 7 7 7 7 8 8 8 6 5 7 7 6 3 5 9 11 11 12 12 13 13 12 11 11 11 10 10 10 10 10 10 10 10 10 10 10 10 10 9 9 8 8 9 9 9 9 9 9 9 8 8 7 7 6 6 6 6 6 6 6 6 6 6 6
13 13 12 12 13 16 18 15 14 14 13 13 13 12 11 11 9 7 7 6 6 7 8 7 7 7 8 6 6 8 9 6 3 5 8 9 10 12 13 13 14 14 14 13 11 12 11 11 11 11 10 10 10 10 10 10 10 10 10 9 8 8 8 9 9 9 9 9 9 9 8 8 8 7 7 6 6 6 6 6 6 6 6 6 6
13 11 11 12 12 14 15 13 13 12 12 13 12 11 10 9 8 7 6 5 5 6 7 7 7 9 8 6 6 7 7 6 6 4 4 5 7 9 10 11 12 12 14 15 14 13 13 12 12 11 11 11 10 10 10 10 10 9 9 9 8 9 9 9 9 9 10 10 10 10 9 9 9 8 8 8 7 7 7 7 7 7 7 7 7
12 9 8 9 9 10 12 12 11 12 12 11 11 10 10 10 9 8 6 5 5 6 6 5 7 10 8 8 8 6 6 7 8 6 5 4 4 5 6 8 11 11 12 14 16 15 15 15 14 13 12 12 11 11 10 10 10 10 9 9 9 10 10 11 11 11 11 11 11 11 11 11 10 10 10 9 9 8 8 8 8 8 8 8 8
13 11 10 10 8 8 11 12 12 14 14 10 10 9 8 9 10 11 9 7 6 7 8 7 7 8 7 8 8 8 7 8 7 5 6 5 6 6 7 9 10 12 14 15 15 14 16 17 17 17 15 14 13 12 11 10 10 10 10 10 11 11 12 12 13 13 13 13 13 13 13 13 13 13 12 12 11 11 10 10 10 9 9 9 9
13 12 11 10 6 7 9 10 11 14 13 10 9 7 7 9 10 12 11 9 8 6 6 8 9 9 8 7 7 6 5 7 7 6 7 5 5 5 7 11 11 12 12 12 13 12 12 14 16 18 18 18 16 15 13 12 11 10 10 11 11 12 13 14 14 15 15 15 15 15 15 15 15 15 15 15 14 14 13 12 12 11 11 10 10
13 12 12 10 7 7 8 9 10 11 11 9 8 7 8 8 9 11 12 12 10 6 4 6 8 10 8 6 7 6 5 8 7 7 9 7 7 4 5 8 10 11 7 3 9 11 9 11 13 14 17 19 18 17 15 13 12 11 11 12 13 14 14 15 16 16 16 16 16 16 16 16 16 16 16 16 16 15 15 14 14 13 13 12 11
12 12 12 10 8 8 8 9 9 10 10 9 7 7 8 7 8 11 13 13 10 7 6 6 9 11 7 5 8 7 6 8 7 7 8 7 8 7 6 6 5 7 7 4 4 8 8 10 12 11 13 16 16 17 16 14 13 12 13 13 14 15 15 16 16 16 16 16 16 16 16 16 16 16 16 16 16 16 16 15 15 15 15 14 13
11 11 11 9 8 8 8 8 8 9 9 8 6 6 8 7 8 9 11 11 8 6 6 4 7 9 8 6 7 6 6 8 7 7 7 6 8 6 7 8 6 5 4 3 4 5 7 8 11 10 10 14 13 14 16 14 14 14 14 14 14 15 15 15 15 15 15 15 15 15 15 16 16 16 16 16 16 16 16 16 16 16 16 16 15
10 10 11 10 8 8 8 7 5 6 7 7 7 7 8 7 7 9 11 9 5 7 7 7 8 7 7 7 7 7 8 10 8 7 5 5 7 7 7 8 6 6 6 5 4 6 7 8 11 6 6 11 10 11 13 13 13 14 13 14 14 14 14 15 15 15 15 15 15 15 15 16 16 16 16 16 16 16 16 16 16 16 16 17 16
9 9 10 10 9 7 8 7 6 6 7 7 7 8 8 7 7 9 11 8 5 7 8 7 7 6 8 8 6 4 4 8 9 8 6 4 8 10 10 7 3 6 9 9 7 7 7 7 11 7 5 8 7 7 11 12 12 12 13 14 14 14 14 14 14 14 14 15 15 15 16 16 16 16 16 16 16 16 15 16 16 16 16 17 17
9 8 8 9 9 7 6 6 6 7 7 7 8 7 7 7 8 9 11 9 6 6 3 3 6 8 7 7 7 4 4 6 7 9 5 2 7 9 10 6 1 2 5 9 8 3 5 7 10 8 5 5 4 5 10 13 11 12 13 14 14 14 14 13 14 14 14 14 15 15 16 16 16 16 16 16 16 16 15 15 15 15 16 16 17
9 8 7 7 8 7 6 6 6 7 7 7 7 7 7 6 7 9 10 9 7 4 2 5 10 9 4 5 7 7 9 9 8 9 5 3 6 7 7 5 4 3 1 3 4 4 8 10 10 8 3 3 4 6 9 10 11 12 14 15 14 14 13 13 13 13 14 14 15 16 17 17 17 17 16 16 16 15 15 15 15 15 15 16 16
9 8 7 7 7 7 7 6 6 6 6 7 6 6 6 5 6 8 9 10 10 6 5 6 9 7 6 6 6 5 7 7 8 7 7 7 6 4 6 4 5 6 4 2 4 6 7 8 11 10 6 4 5 6 9 9 10 13 14 14 14 13 13 14 13 14 14 15 16 16 17 18 17 17 17 17 16 16 15 15 15 15 15 16 16
8 8 7 7 7 6 7 6 5 5 6 6 6 6 6 4 4 7 8 9 10 9 7 7 7 8 10 8 6 6 8 7 7 7 8 8 5 2 6 5 3 6 6 4 2 7 4 3 7 9 8 7 5 5 7 8 10 12 12 12 13 13 13 14 15 15 15 16 17 17 18 18 18 18 17 17 17 16 15 15 14 14 14 15 15
7 7 7 7 7 6 6 6 5 5 6 6 6 7 5 3 4 6 9 9 9 10 8 7 7 7 8 8 6 6 7 8 9 7 5 6 6 6 6 5 1 3 5 5 3 5 4 1 3 7 7 6 5 4 4 4 6 7 9 11 11 13 13 14 15 16 17 17 18 18 18 19 18 18 18 17 17 16 16 15 14 14 14 14 15
7 6 7 6 7 6 5 6 5 5 6 4 3 6 4 3 6 7 9 10 9 9 8 8 8 6 7 8 6 5 6 7 8 7 7 7 7 8 8 6 3 5 5 4 3 3 5 6 1 4 6 5 3 3 2 4 6 6 9 11 12 13 14 14 15 16 17 18 19 19 19 19 18 18 18 17 17 17 16 16 15 14 14 14 15
7 7 7 6 6 6 6 6 5 5 6 3 1 4 3 4 7 7 8 8 8 9 8 9 10 6 6 8 6 4 5 6 8 6 6 7 5 5 7 5 6 9 5 3 3 3 3 4 1 4 3 5 4 3 4 5 6 6 9 12 12 14 15 14 15 17 18 19 19 20 21 20 19 18 17 18 18 18 17 16 16 15 15 15 15
7 7 7 7 6 6 5 5 5 5 5 4 2 3 4 5 6 6 6 7 8 9 8 9 10 8 5 6 7 6 6 5 6 5 4 5 3 4 7 5 4 7 4 2 2 2 1 1 4 3 2 2 3 5 6 6 6 6 9 12 13 14 15 15 16 18 19 19 20 21 21 20 19 17 17 18 18 18 18 18 17 16 16 16 16
7 7 7 7 7 6 5 4 4 5 5 5 4 3 3 3 4 5 6 6 7 7 8 8 9 8 5 4 6 7 6 4 4 5 3 3 2 2 5 5 1 3 4 4 1 2 3 3 2 2 0 4 7 8 8 8 8 8 10 12 14 16 16 18 19 19 20 19 21 23 22 20 18 17 18 18 19 19 19 19 19 18 17 17 17
8 8 8 7 7 7 7 5 5 5 5 5 5 6 5 3 3 5 5 5 6 7 9 7 6 7 5 1 3 7 6 4 3 2 1 2 3 2 1 2 2 1 2 4 2 2 4 6 4 5 4 6 9 9 9 10 10 11 11 13 16 17 17 18 19 21 22 21 23 24 22 19 18 18 18 18 19 20 20 21 21 20 19 18 18
10 9 8 8 7 8 8 7 6 6 6 6 5 6 6 4 4 5 4 4 5 7 8 6 5 6 3 1 2 5 7 5 4 3 2 1 2 4 3 2 1 2 2 6 5 3 2 6 6 7 8 8 9 10 11 12 12 13 13 14 16 18 17 18 20 22 22 23 24 23 21 19 18 18 18 19 20 21 22 22 22 22 21 20 19
11 10 9 9 9 8 9 8 8 7 6 6 7 7 6 4 5 6 5 5 4 6 6 4 4 4 2 1 2 2 5 6 6 5 4 4 4 5 4 3 3 3 4 6 6 6 5 6 6 8 10 10 11 13 15 13 11 12 13 14 17 20 19 19 21 22 22 23 23 21 20 20 19 19 20 20 22 23 24 24 23 23 22 21 20
11 11 11 11 11 9 9 9 8 8 6 6 7 8 7 5 5 5 5 4 4 5 6 4 3 3 2 2 1 2 3 3 5 3 4 3 2 3 5 3 3 4 4 5 5 5 6 5 6 9 11 12 13 15 15 12 11 13 14 15 18 21 21 21 21 20 21 22 20 19 21 21 21 22 22 22 23 24 25 25 24 23 22 21 19
11 12 12 13 11 10 10 9 8 8 8 7 7 7 7 6 5 5 5 4 4 5 6 6 4 3 2 2 2 2 5 3 2 3 2 3 2 2 4 4 3 3 4 5 5 5 5 7 9 11 11 11 13 14 14 13 12 13 15 15 16 18 22 24 21 18 18 18 17 19 21 21 23 25 26 25 24 25 25 25 24 24 22 21 19
11 12 12 12 12 10 9 9 9 8 8 8 8 7 7 7 6 6 6 6 5 5 6 6 5 3 3 3 3 3 4 4 4 3 2 4 4 3 4 4 4 4 5 6 7 7 7 7 9 11 11 12 14 14 13 14 15 15 14 14 14 18 23 24 20 15 14 15 17 20 21 21 23 25 27 26 25 25 25 24 24 24 23 21 19
10 11 11 11 11 10 10 10 9 9 9 8 9 8 7 8 7 6 8 7 5 5 5 5 6 5 4 4 4 5 4 4 5 5 5 4 3 4 6 5 5 5 6 8 8 7 7 8 8 9 11 12 14 15 11 11 15 16 14 15 17 20 23 23 18 14 14 16 18 21 21 20 22 25 26 25 26 27 24 24 25 23 22 21 20
10 11 11 11 11 11 10 10 9 10 10 9 9 9 8 8 7 5 6 6 5 5 6 5 5 4 5 7 8 7 7 7 7 6 6 5 3 4 6 7 7 8 7 9 10 8 8 10 10 10 11 10 12 16 14 11 14 17 16 16 18 21 23 21 16 15 17 19 19 21 21 20 22 25 24 25 28 27 25 26 25 23 22 21 19
10 11 11 10 10 10 10 10 10 10 10 10 9 9 9 9 8 6 6 8 7 6 7 6 5 4 6 8 8 8 8 8 8 6 6 6 5 5 7 8 9 9 8 9 11 11 10 11 12 11 11 11 12 13 14 14 14 16 17 16 18 20 18 17 16 17 19 19 20 21 20 21 23 24 23 25 28 27 27 28 25 22 22 20 19
10 11 11 12 11 10 10 9 9 9 9 9 9 9 9 9 9 8 9 10 8 7 7 7 7 7 8 9 8 7 7 7 7 7 6 6 7 7 8 10 9 9 10 10 12 14 13 12 13 13 12 12 11 11 13 16 15 16 16 16 17 17 15 15 16 17 17 18 20 20 20 21 22 21 22 25 27 27 29 29 25 22 22 21 19
12 11 11 11 11 10 10 9 9 10 10 9 9 10 9 9 10 9 9 9 8 7 8 8 8 8 8 9 8 7 6 6 6 5 5 6 7 7 8 9 8 8 9 10 11 15 16 14 13 14 13 12 13 13 14 16 15 15 15 15 16 16 15 15 15 16 16 17 19 19 20 21 20 20 23 24 24 25 29 29 25 23 22 21 19
12 11 10 10 10 10 11 11 11 11 11 10 10 10 9 9 9 9 9 10 9 8 7 8 7 7 7 8 7 6 6 5 6 6 6 7 8 8 8 9 9 9 9 9 11 15 16 14 13 14 13 12 14 14 13 13 13 13 14 15 15 16 15 15 15 15 16 17 19 19 20 21 21 21 22 20 21 25 29 28 26 25 23 21 19
10 11 12 11 11 11 11 12 12 12 11 11 10 10 9 9 9 8 10 12 10 8 8 8 7 7 7 7 7 7 6 7 8 9 8 7 7 8 9 9 9 9 9 10 12 14 14 14 14 14 13 14 14 13 13 14 13 14 15 15 16 17 15 14 14 15 16 18 18 18 20 22 21 19 18 19 22 26 28 27 26 25 23 21 19
11 11 12 12 12 13 12 12 13 13 12 11 10 10 10 10 10 8 9 10 10 10 10 9 8 8 9 8 8 8 7 8 9 8 7 7 7 8 8 8 8 9 10 11 12 12 13 14 15 14 13 14 14 13 14 16 16 16 16 16 16 17 17 17 16 16 16 17 17 19 21 20 18 17 19 21 25 27 28 27 25 23 20 20 20
12 12 11 11 12 12 11 11 12 12 12 11 10 10 11 10 10 9 9 10 10 11 10 9 8 9 10 9 8 8 8 8 9 8 8 8 8 8 8 8 9 11 11 11 11 11 12 14 16 16 15 15 15 14 15 15 15 17 17 16 16 17 20 21 19 17 17 19 21 23 22 18 17 18 21 25 27 28 28 25 21 19 18 19 20
12 11 11 11 12 11 9 10 12 11 10 11 11 11 11 11 11 11 10 10 10 10 10 8 8 9 10 9 8 9 9 9 9 9 9 9 9 8 8 10 11 11 11 11 11 12 13 14 15 16 16 15 16 15 14 15 16 17 17 17 19 20 20 18 16 18 21 24 25 24 21 19 21 24 27 29 31 29 26 21 18 18 19 18 18
10 11 11 11 11 11 11 10 11 11 11 11 11 11 11 11 12 11 11 10 10 11 10 9 8 9 10 10 10 11 12 12 11 10 9 9 9 9 10 11 11 12 12 13 14 14 15 16 16 16 16 16 17 16 16 17 18 17 17 18 20 20 17 15 17 22 25 26 26 24 23 25 28 31 33 33 31 27 24 20 17 17 17 17 20
10 10 11 11 10 11 11 10 11 12 13 12 12 11 11 11 12 12 12 12 11 11 11 11 10 10 10 11 11 12 13 12 12 13 12 11 13 14 14 15 15 15 16 17 17 16 16 17 17 17 17 17 17 16 17 17 17 17 17 17 18 18 20 22 23 24 24 26 27 28 29 31 34 36 35 32 28 26 23 19 18 18 18 20 23
11 11 11 11 11 10 11 10 10 12 14 14 13 12 11 11 10 11 12 13 12 10 11 12 12 11 11 11 11 12 13 13 13 14 16 16 17 18 18 18 18 18 18 18 18 18 18 18 18 18 18 17 16 16 17 17 17 17 18 19 21 23 25 26 25 24 24 27 30 33 34 35 37 36 32 28 26 25 22 20 20 20 21 23 25
13 12 11 11 10 10 11 12 11 12 14 15 13 12 12 12 11 11 11 11 11 10 11 13 12 12 13 12 12 12 14 15 14 14 16 17 17 17 16 16 16 16 17 18 18 19 19 19 20 19 19 19 18 18 18 17 16 18 20 21 22 23 24 25 27 28 28 30 34 37 38 37 35 32 28 26 25 25 23 22 21 20 20 23 26
16 15 13 13 13 13 12 11 10 11 14 15 14 14 14 14 13 13 13 11 10 9 11 13 13 13 13 13 13 13 13 13 12 12 15 16 17 17 16 15 15 16 17 18 19 20 20 20 21 21 21 21 21 21 20 19 20 21 22 22 22 22 23 25 29 32 34 34 35 38 39 36 31 28 27 26 25 25 25 24 22 20 20 24 26
15 16 15 15 17 17 15 15 14 13 13 14 15 16 16 16 16 15 15 15 14 12 11 11 13 14 13 14 15 16 16 15 13 12 14 16 18 19 18 17 18 18 19 19 19 19 19 20 21 22 22 22 23 23 22 21 22 21 22 23 23 23 24 27 32 36 38 36 34 35 37 33 29 29 28 26 24 24 24 24 22 21 22 24 24
12 14 16 17 18 18 18 18 19 19 17 16 16 17 18 19 19 17 17 17 17 16 13 11 12 14 15 17 19 19 19 19 17 15 16 17 19 20 20 21 21 20 18 18 17 18 18 19 21 23 23 22 23 23 22 22 21 21 23 25 26 28 30 33 36 38 38 34 29 29 31 30 28 29 28 25 25 24 23 21 20 21 22 21 21
14 14 16 17 17 16 16 18 21 22 21 19 17 17 18 19 20 20 20 20 20 19 16 14 16 17 18 19 20 20 20 20 19 18 18 18 19 20 21 21 20 18 17 17 17 18 20 21 22 22 20 19 20 21 22 22 23 23 25 28 30 32 33 34 35 36 34 29 23 22 27 29 27 26 26 25 25 24 22 20 20 19 18 19 21
17 17 17 19 20 18 16 18 22 23 23 22 20 20 20 20 20 21 21 21 21 19 16 17 20 19 19 19 19 20 20 20 19 18 18 19 20 20 20 19 19 20 19 17 16 18 20 20 21 21 20 19 20 21 22 24 25 27 29 30 30 30 30 32 33 32 30 27 23 21 24 26 24 23 23 24 26 26 24 23 21 20 20 22 24
18 18 18 19 21 21 18 18 21 23 24 22 21 21 21 21 21 22 22 21 20 18 17 19 21 21 21 21 20 21 21 20 19 19 19 20 20 20 21 20 21 22 20 17 19 21 21 20 21 23 24 23 23 23 23 25 27 29 31 30 29 27 28 30 30 30 29 27 24 20 21 23 23 23 25 27 28 29 28 28 27 26 26 26 25
13 15 16 16 17 18 18 18 20 23 24 22 21 20 19 19 19 20 20 20 18 17 17 17 18 20 21 21 21 22 22 21 20 20 21 21 21 22 23 23 23 22 20 20 23 25 23 22 22 23 23 22 23 24 24 24 25 26 27 26 24 23 24 25 25 26 26 24 20 20 22 25 26 27 29 31 32 32 31 32 31 29 28 28 27
10 11 11 10 11 12 13 15 19 20 20 19 20 20 19 18 17 18 19 18 17 17 16 16 17 20 21 21 21 22 21 20 19 19 20 21 21 22 22 21 22 21 20 22 24 24 24 23 22 21 21 22 23 24 24 23 21 20 20 21 21 20 21 22 22 24 24 23 21 22 25 27 28 29 31 33 35 35 33 32 32 31 29 28 28
Wind_Direction
136 129 121 119 120 121 124 129 125 125 126 119 120 118 111 105 97 89 89 100 108 107 110 109 106 105 98 101 111 103 102 109 88 17 41 48 56 70 75 79 79 80 80 83 85 85 85 84 84 83 80 77 74 72 70 69 68 69 68 66 65 64 61 61 60 59 58 57 53 51 48 44 39 35 30 27 24 21 20 19 16 15 14 6 353
137 133 128 127 130 130 132 133 129 129 124 120 125 120 112 103 94 94 112 125 129 126 124 125 120 118 104 90 77 62 65 89 97 68 24 47 60 67 77 80 78 82 83 83 83 80 81 80 79 76 74 73 70 70 69 69 68 67 68 68 67 66 65 64 61 59 58 56 54 51 48 43 38 33 27 23 20 18 16 11 7 2 359 352 344
141 137 133 132 132 135 138 132 128 126 118 124 138 131 117 107 109 127 139 142 141 124 120 125 122 120 120 103 83 54 53 75 87 80 22 55 72 70 77 82 80 81 78 77 76 74 73 71 72 70 67 68 68 70 69 69 70 69 70 69 68 68 67 64 60 58 57 56 54 51 49 45 41 36 29 24 19 18 16 13 7 0 352 340 331
144 135 133 136 137 142 144 137 126 121 121 127 130 125 114 107 122 143 132 137 138 129 127 126 124 126 126 110 102 105 97 96 94 55 26 62 78 72 76 80 76 73 67 65 63 63 65 64 64 65 65 67 67 69 70 69 69 69 68 68 67 66 64 62 59 57 56 55 54 52 51 48 46 44 38 32 26 21 18 16 14 6 356 342 328
143 139 150 155 154 153 152 143 125 124 132 127 112 107 105 106 126 136 124 129 125 131 134 119 121 127 123 110 93 99 108 103 76 30 33 54 67 68 77 77 68 61 54 52 52 52 55 58 59 61 62 63 64 64 64 65 64 65 65 64 63 60 59 59 59 61 60 60 60 59 57 54 51 48 45 40 33 27 22 18 15 10 2 350 335
142 143 157 155 142 140 139 131 121 122 127 122 115 121 130 127 129 126 126 136 127 135 137 121 128 128 119 121 100 92 108 98 94 99 67 52 39 45 55 52 47 45 44 44 46 49 49 52 55 56 57 56 57 58 58 60 60 61 60 59 60 59 61 62 64 66 66 66 65 64 60 57 54 49 46 41 36 30 24 20 16 12 6 358 347
138 131 133 126 113 116 122 124 126 121 116 116 118 129 145 146 141 136 127 125 117 120 132 131 138 136 123 122 114 103 123 118 111 107 86 78 61 54 44 27 23 33 47 43 40 47 49 47 45 44 49 50 50 50 51 54 55 57 58 58 61 64 67 68 69 70 68 67 65 63 60 56 52 47 43 38 34 29 24 21 18 15 10 3 354
133 123 113 109 110 120 123 124 125 117 111 107 102 105 128 138 144 149 137 134 129 114 121 120 125 134 114 106 110 102 98 103 114 104 86 83 79 78 66 54 37 34 41 35 33 43 41 38 38 39 41 41 42 42 43 44 48 53 56 60 63 67 71 71 70 69 66 64 62 60 57 54 49 45 42 37 32 28 24 20 18 16 12 7 360
125 115 105 101 109 121 120 121 123 117 108 101 101 104 114 117 131 141 130 127 131 124 131 118 114 124 108 96 113 116 107 112 128 127 112 100 85 61 39 51 52 44 38 22 23 30 29 33 39 40 37 35 34 34 36 38 42 49 55 61 67 69 71 70 68 65 62 60 57 56 54 51 48 44 41 38 34 30 26 22 19 16 13 9 3
124 118 113 112 122 125 120 122 124 115 102 98 105 106 99 98 115 129 119 106 103 110 132 113 115 127 121 114 116 114 133 134 124 106 99 99 110 96 36 48 48 57 79 54 27 28 37 53 49 39 32 30 31 32 35 37 42 49 56 62 66 68 68 67 65 61 59 56 53 50 48 46 43 41 38 35 34 31 28 26 23 19 14 11 6
135 129 123 124 137 138 124 122 123 113 102 100 99 99 98 97 107 115 108 92 83 92 98 88 103 111 110 123 128 119 112 107 95 109 115 102 110 100 82 99 74 67 95 116 68 42 50 65 55 46 41 35 30 33 36 38 46 52 58 62 65 66 66 64 62 58 55 50 47 43 39 37 34 33 31 28 27 26 25 24 24 21 18 14 8
147 139 130 127 136 135 119 115 118 112 109 108 104 102 100 97 101 102 93 80 80 103 96 85 93 92 90 92 111 129 129 116 103 125 133 101 114 109 74 93 92 72 69 83 108 66 56 72 59 42 45 45 34 38 40 38 47 52 57 61 62 63 62 59 56 51 48 43 39 35 31 29 26 25 23 21 19 17 17 17 18 19 18 17 13
154 146 134 128 134 132 120 115 112 112 113 111 110 105 98 93 97 97 87 74 90 120 116 123 111 95 106 93 86 103 119 134 131 136 145 89 110 130 87 84 76 74 86 77 79 58 54 81 73 39 32 44 28 34 41 41 51 52 53 55 53 54 51 49 47 42 40 35 31 27 23 21 18 17 16 15 14 11 11 10 10 12 13 15 15
152 148 134 128 133 129 122 121 115 116 113 109 110 107 103 99 97 98 93 84 100 123 123 131 124 115 120 113 109 110 115 141 144 149 168 74 86 108 98 103 89 74 83 75 68 49 38 71 75 57 48 45 7 9 30 34 50 54 54 52 46 44 41 39 37 34 33 29 25 21 17 14 12 10 9 10 10 8 7 6 6 6 7 9 12
147 143 135 132 132 126 121 120 116 116 111 113 113 106 102 95 97 105 103 98 96 106 105 100 127 138 137 131 129 126 122 149 154 146 158 61 82 101 99 112 150 63 67 74 90 68 33 58 65 57 55 51 18 24 29 22 32 49 54 52 46 43 38 34 31 28 27 24 21 17 14 11 9 6 5 6 7 6 5 4 4 4 4 4 7
146 141 140 140 138 132 126 123 123 119 111 114 107 94 90 83 97 113 111 107 94 79 65 111 139 151 159 154 134 111 102 117 139 132 131 137 117 113 118 124 117 144 192 43 60 45 41 39 38 43 50 68 61 53 43 29 31 46 53 53 50 46 41 35 29 25 23 19 17 14 11 9 7 5 2 2 3 3 2 2 2 2 3 4 4
151 148 151 151 147 142 133 130 126 122 116 113 105 91 85 79 97 111 111 111 104 90 74 103 132 119 86 111 120 84 71 102 136 122 105 121 118 117 151 140 72 103 160 270 4 37 44 17 24 34 27 58 67 49 52 51 48 50 51 51 47 44 41 35 29 22 18 14 11 9 7 5 4 2 360 359 359 359 359 359 360 1 3 4 4
155 154 158 158 154 146 139 136 126 129 123 110 109 98 85 82 101 117 125 116 110 109 92 94 111 90 74 82 88 54 41 76 112 109 107 118 111 127 165 164 39 64 117 155 41 43 38 357 30 26 19 59 72 47 54 57 54 50 45 43 36 32 31 27 23 17 12 9 7 4 2 0 358 357 356 356 356 355 356 355 356 359 2 3 5
163 162 163 163 158 151 148 141 128 129 122 109 115 113 99 96 95 112 133 124 115 123 120 114 118 104 86 82 86 67 53 77 95 88 73 87 97 99 128 152 47 65 101 131 133 47 47 87 27 358 8 60 84 60 51 42 43 38 30 27 18 13 15 14 13 9 5 3 2 0 358 356 354 352 352 353 354 353 353 352 352 355 358 1 3
172 172 168 168 162 160 158 144 135 136 126 105 105 117 118 122 104 109 132 129 124 127 122 110 107 105 103 101 99 81 67 75 84 73 42 56 90 94 115 142 106 91 92 114 137 41 76 125 102 326 338 3 40 46 8 1 13 10 12 11 4 360 358 1 2 360 358 355 355 354 353 352 350 349 350 350 353 353 352 351 350 350 352 354 357
179 178 173 175 170 167 167 153 145 141 126 106 97 132 152 137 118 123 134 133 132 128 115 105 99 91 106 115 110 100 96 72 59 60 54 61 71 79 104 121 97 95 82 106 123 34 88 125 309 265 296 352 14 6 337 346 354 354 4 1 354 351 345 347 351 351 351 348 348 348 347 348 347 347 349 349 352 353 352 351 349 347 346 346 347
182 182 178 176 175 170 172 162 148 147 144 153 166 150 151 138 127 133 137 139 142 132 113 105 101 88 95 115 104 94 109 91 51 50 58 53 51 94 87 62 97 109 62 68 127 325 239 5 339 222 194 6 353 343 338 336 333 331 343 343 340 342 339 338 338 340 343 341 341 342 342 344 346 346 349 351 353 353 353 352 349 346 343 341 341
182 189 183 179 183 174 171 176 170 172 174 174 168 145 146 149 149 147 144 146 150 139 118 109 107 96 91 116 116 109 111 100 50 43 52 53 56 104 75 42 87 130 82 101 78 319 171 131 60 164 195 331 321 331 331 330 331 319 322 329 332 333 333 333 332 333 334 333 335 338 339 342 345 347 350 352 354 354 354 353 350 346 343 339 338
184 193 186 182 192 181 173 186 195 189 176 172 169 163 168 176 165 152 148 152 151 143 125 111 119 116 105 149 156 137 134 114 63 36 23 123 121 129 48 12 359 28 145 186 264 333 171 180 207 222 253 303 313 320 321 324 323 313 318 332 334 330 327 329 329 327 328 330 332 335 338 342 344 348 351 353 354 354 354 352 349 346 342 338 336
188 194 186 187 198 192 186 191 197 194 181 181 190 179 169 165 163 154 149 153 147 143 131 115 134 136 115 234 179 150 162 162 153 177 229 255 191 203 233 256 287 335 284 246 260 305 245 210 234 266 271 285 303 315 320 320 313 311 322 332 332 330 328 326 323 322 325 327 328 333 340 344 345 348 351 353 353 354 352 350 347 344 340 336 333
191 192 185 193 202 197 197 199 198 200 194 187 192 190 182 171 170 167 163 164 152 147 138 120 151 166 161 208 167 159 186 177 162 180 231 254 232 232 244 241 242 265 291 278 275 311 301 233 251 308 313 311 314 317 320 320 314 321 332 330 325 326 326 324 320 320 323 323 323 333 343 346 347 349 350 352 352 352 350 348 346 344 341 337 332
194 191 187 199 206 199 199 203 201 203 204 194 189 192 195 194 186 174 164 163 166 163 146 132 169 182 179 197 182 272 258 186 164 206 257 242 200 251 265 258 259 255 265 280 282 310 316 287 290 318 324 324 327 327 331 337 332 333 335 329 324 324 321 321 321 323 324 320 320 332 342 346 349 350 349 349 349 348 346 346 346 345 344 340 335
196 195 193 201 205 200 200 204 205 204 202 198 197 199 198 200 195 178 168 172 189 190 161 155 180 173 168 188 174 258 288 288 220 226 254 261 268 296 282 271 280 278 267 269 263 259 277 294 304 312 314 317 328 335 342 347 336 325 322 321 324 318 311 316 326 329 322 314 317 330 338 341 345 348 347 346 345 343 343 345 346 346 345 343 340
200 201 200 205 205 202 203 204 206 205 203 202 203 205 203 202 199 187 189 194 198 201 182 173 186 174 182 206 182 209 262 292 276 246 242 270 274 280 288 283 280 282 273 268 269 266 263 272 293 312 316 317 324 329 335 338 329 322 321 320 314 302 302 313 327 331 320 311 317 329 333 334 339 343 345 344 343 341 342 345 346 346 345 344 343
199 201 203 208 207 205 205 206 207 205 204 205 206 207 205 204 205 202 205 205 201 209 207 199 196 191 197 208 201 202 215 239 260 273 285 272 244 244 264 278 272 265 269 274 280 283 282 280 283 296 306 315 319 314 314 322 316 311 309 304 299 298 304 314 326 335 328 318 321 326 326 328 335 340 340 341 341 341 344 346 345 345 345 344 343
196 197 202 210 210 208 209 210 210 208 206 207 211 212 208 205 205 214 228 230 224 223 226 218 207 212 220 214 211 209 206 212 223 250 278 277 269 262 263 274 276 267 271 282 286 287 286 290 290 289 293 301 304 303 304 305 299 295 295 296 298 300 305 315 332 338 327 319 322 325 323 325 333 336 334 336 338 339 344 346 344 343 344 345 344
203 199 202 207 210 210 208 209 210 211 212 210 213 217 214 211 206 205 234 250 252 248 240 226 213 226 238 229 225 220 215 221 219 222 255 271 271 264 259 266 274 276 279 283 289 297 297 294 298 297 294 290 290 298 303 298 290 291 297 299 298 300 312 329 338 328 315 315 322 325 324 326 332 331 328 332 334 335 340 343 342 341 342 344 344
206 208 205 200 208 212 206 210 212 215 220 213 215 223 218 218 216 208 222 238 249 255 248 236 224 226 238 243 245 244 238 243 240 228 239 261 265 265 264 265 266 270 271 272 282 296 300 297 297 299 300 299 298 299 296 292 290 295 303 308 308 312 325 330 322 312 310 317 324 324 323 327 330 327 326 330 330 329 334 338 340 342 340 341 342
203 210 210 202 209 208 199 210 215 217 228 220 215 227 225 223 224 220 231 245 250 253 253 253 246 238 245 253 257 258 255 269 282 268 249 253 264 271 273 273 275 275 275 280 288 294 298 300 299 301 304 303 298 294 291 293 299 304 310 313 313 313 315 312 309 310 314 319 321 320 323 329 331 327 326 327 323 323 328 333 339 342 338 338 341
203 203 206 207 216 209 197 209 213 213 228 229 219 224 230 234 229 217 226 241 251 258 256 256 258 257 258 261 269 271 264 276 289 276 253 246 250 256 264 271 274 275 278 283 286 289 295 302 303 303 306 304 298 299 304 306 306 305 305 305 305 306 307 306 308 313 316 315 317 321 326 327 325 323 324 324 319 320 325 330 335 337 335 336 339
209 202 201 205 217 217 205 208 213 212 223 234 226 219 227 242 241 226 223 230 242 257 259 254 254 258 259 261 266 264 255 256 255 250 252 260 261 258 263 268 270 273 274 270 274 282 290 297 302 306 308 309 311 318 322 317 310 304 305 306 311 318 322 319 316 315 314 314 318 322 320 317 320 326 328 323 318 319 322 326 329 328 330 332 335
209 205 209 210 217 224 216 213 218 217 221 232 230 218 224 241 249 245 236 237 245 254 259 258 252 251 254 254 255 255 252 257 263 263 264 266 263 261 266 270 274 275 272 271 279 287 292 297 305 311 312 316 324 326 318 314 313 313 316 317 321 331 335 330 324 318 314 317 319 318 317 321 332 335 326 317 317 320 322 321 321 322 327 329 330
214 212 215 215 222 235 229 221 229 231 228 234 234 222 220 230 243 252 251 249 254 256 257 260 260 263 264 258 256 259 255 254 260 265 264 261 260 263 268 270 268 269 274 281 290 296 300 303 307 311 313 317 318 312 307 309 312 318 324 326 330 334 331 326 325 323 320 319 318 321 328 335 334 325 317 317 322 325 324 321 321 326 330 328 325
220 223 220 214 224 243 242 227 233 241 238 238 242 237 229 225 233 247 256 257 261 263 263 263 260 263 270 272 270 272 272 267 261 257 258 264 269 272 274 274 273 277 283 285 284 284 288 291 293 299 303 305 305 307 313 317 315 316 322 323 324 326 324 323 324 321 318 317 320 326 332 327 321 319 320 324 327 327 327 328 330 330 329 325 321
220 226 232 223 217 232 244 236 232 241 246 243 243 245 242 235 232 240 251 255 256 260 265 268 265 265 271 275 274 279 284 284 278 271 261 258 264 268 265 264 267 269 269 270 273 276 280 283 289 295 299 303 309 318 325 325 321 320 321 320 319 319 316 312 310 312 315 319 325 329 326 322 321 323 324 326 328 330 333 335 335 331 327 323 323
224 226 240 244 232 231 241 239 231 239 247 247 247 248 248 243 235 235 242 248 252 256 263 267 268 269 270 270 270 276 282 280 276 279 281 279 282 282 275 268 268 270 273 276 280 284 286 289 294 299 301 304 310 315 318 318 319 320 319 314 309 305 303 303 307 314 320 324 326 325 323 323 323 323 324 326 330 334 337 339 340 337 330 322 321
233 233 237 247 252 252 254 252 250 250 248 246 247 249 252 254 250 246 246 247 249 253 259 261 262 266 270 272 275 277 281 281 277 279 284 286 287 286 282 276 273 277 280 282 286 290 292 293 294 296 297 298 301 303 303 305 308 310 307 302 299 301 305 309 314 319 323 324 323 321 321 322 323 324 326 329 333 338 342 343 338 329 320 316 318
226 233 236 238 240 246 255 263 267 259 250 251 252 250 257 265 267 267 263 255 255 263 269 270 269 269 269 270 274 280 287 290 286 281 283 284 283 284 283 280 279 282 287 289 293 295 297 298 297 297 297 297 299 301 302 304 304 301 299 298 301 307 312 315 316 317 320 321 320 318 319 323 325 327 328 332 338 341 341 339 332 323 318 316 318
217 222 231 237 234 233 240 249 254 249 244 247 249 249 256 263 265 269 268 261 263 274 282 286 289 287 284 282 280 279 280 282 282 283 281 279 281 284 283 281 280 283 287 290 292 294 296 297 297 297 298 300 304 307 308 307 303 302 303 305 308 312 313 313 312 313 315 317 317 317 319 325 330 330 330 335 340 340 336 333 333 331 323 316 316
223 220 221 230 235 236 237 239 243 249 250 249 247 246 251 256 257 261 262 261 264 264 263 280 296 297 292 287 282 275 269 266 265 269 271 272 279 282 281 282 283 284 284 283 285 290 295 297 297 299 302 305 308 310 309 306 303 303 305 307 309 308 306 305 305 307 310 313 317 318 319 324 330 328 328 331 332 327 324 325 328 324 315 313 319
236 230 224 226 234 239 242 245 246 250 254 256 255 251 250 253 254 255 258 263 270 269 264 270 283 282 275 274 276 276 274 272 268 264 265 270 275 277 279 282 285 286 285 283 285 290 293 294 296 297 298 301 305 307 305 303 301 301 301 303 304 302 300 300 300 303 307 313 320 320 316 319 323 321 320 321 317 313 312 313 312 309 310 316 322
244 242 234 230 233 237 241 245 246 249 253 256 257 254 251 251 252 255 259 264 270 275 276 270 266 265 266 270 274 275 276 279 276 268 266 271 273 274 277 280 282 284 287 290 294 292 289 289 292 293 293 294 298 300 298 297 296 295 294 295 297 299 299 299 299 302 307 313 320 316 307 309 316 319 318 315 311 308 308 306 306 310 318 319 315
244 245 242 236 236 239 240 242 245 247 250 253 254 254 253 252 251 254 258 262 268 274 274 265 260 261 265 269 273 275 276 278 277 272 271 276 278 277 277 278 278 280 285 291 288 281 279 281 285 288 289 289 290 290 288 287 288 289 290 291 294 298 300 300 303 307 310 313 318 313 303 304 312 315 310 307 306 306 306 305 306 309 312 309 307
241 239 240 238 239 243 244 243 243 243 245 248 250 251 250 250 250 253 256 261 265 266 263 261 261 262 264 269 274 277 277 276 275 276 277 279 280 279 279 279 279 281 287 288 281 277 278 278 276 277 279 283 286 284 283 284 288 290 292 293 296 299 301 304 307 310 312 316 320 317 307 305 308 306 301 301 303 304 304 305 305 305 306 307 308
245 241 241 242 245 248 248 245 243 243 244 244 246 249 252 252 252 253 256 258 260 259 259 264 265 263 263 267 271 274 274 272 273 274 275 277 280 281 282 282 282 284 286 282 280 283 285 282 276 274 276 281 285 286 286 287 289 292 295 298 300 303 304 307 310 312 314 318 318 312 308 307 306 305 304 304 302 301 304 307 308 309 310 311 312
249 247 242 242 249 253 251 246 242 243 246 246 245 247 251 257 259 259 258 258 258 257 259 263 265 264 265 267 268 270 272 273 274 275 276 280 284 286 286 286 286 286 285 284 286 289 290 288 285 283 283 284 286 287 287 285 284 289 294 297 300 303 304 305 310 313 315 315 313 310 309 307 306 307 310 311 309 307 309 311 311 312 314 314 316
Height
1587 1588 1590 1590 1591 1591 1591 1591 1592 1592 1594 1595 1596 1596 1596 1596 1596 1596 1597 1598 1600 1601 1601 1602 1602 1602 1602 1602 1603 1603 1603 1603 1602 1601 1601 1601 1600 1600 1600 1600 1600 1599 1599 1599 1599 1598 1597 1597 1597 1597 1597 1597 1597 1597 1597 1596 1596 1596 1595 1595 1595 1595 1595 1594 1594 1593 1593 1592 1592 1592 1591 1591 1590 1590 1589 1588 1588 1587 1587 1586 1585 1585 1584 1584 1583
1589 1590 1592 1593 1593 1592 1592 1593 1593 1594 1594 1595 1597 1597 1597 1596 1596 1598 1599 1601 1602 1602 1602 1603 1603 1603 1603 1603 1603 1603 1603 1603 1603 1602 1601 1601 1601 1601 1601 1601 1601 1600 1600 1600 1600 1599 1599 1599 1598 1598 1598 1598 1598 1598 1598 1597 1597 1597 1596 1596 1596 1596 1595 1595 1595 1594 1594 1593 1593 1592 1592 1591 1590 1590 1589 1589 1588 1587 1587 1586 1585 1584 1584 1583 1583
1590 1592 1594 1595 1594 1593 1593 1593 1594 1594 1594 1596 1597 1596 1596 1596 1597 1600 1602 1602 1602 1602 1603 1604 1604 1604 1604 1604 1604 1604 1603 1603 1604 1603 1602 1602 1602 1602 1602 1602 1602 1602 1602 1602 1601 1601 1601 1600 1600 1600 1600 1600 1600 1599 1599 1599 1598 1598 1597 1597 1597 1597 1596 1596 1595 1595 1594 1594 1593 1593 1592 1592 1591 1590 1590 1589 1588 1587 1587 1586 1585 1584 1584 1583 1582
1592 1594 1595 1596 1597 1597 1597 1596 1594 1593 1593 1595 1596 1596 1597 1597 1599 1602 1602 1603 1603 1603 1604 1605 1605 1605 1605 1606 1606 1605 1605 1605 1606 1605 1604 1603 1603 1603 1603 1603 1603 1603 1604 1603 1603 1603 1602 1602 1602 1602 1602 1601 1601 1601 1600 1600 1600 1599 1599 1598 1598 1598 1597 1597 1596 1596 1595 1594 1594 1593 1593 1592 1591 1590 1590 1589 1588 1587 1587 1586 1585 1584 1583 1583 1582
1593 1594 1596 1598 1599 1599 1600 1600 1598 1596 1595 1596 1596 1597 1599 1600 1602 1603 1603 1604 1603 1604 1605 1605 1605 1606 1606 1606 1606 1606 1606 1607 1607 1606 1605 1605 1604 1605 1605 1605 1605 1605 1605 1605 1604 1604 1604 1604 1604 1603 1603 1603 1603 1602 1602 1601 1601 1600 1600 1599 1599 1598 1598 1597 1597 1596 1596 1595 1594 1594 1593 1592 1591 1591 1590 1589 1588 1587 1587 1586 1585 1584 1583 1582 1581
1593 1594 1595 1596 1596 1597 1598 1600 1599 1598 1599 1598 1597 1599 1601 1603 1604 1604 1604 1604 1604 1605 1606 1606 1606 1606 1607 1607 1606 1606 1607 1607 1608 1607 1607 1607 1606 1606 1606 1606 1606 1606 1606 1606 1606 1606 1606 1606 1605 1605 1605 1605 1604 1604 1603 1602 1602 1601 1601 1600 1600 1599 1599 1598 1597 1597 1596 1596 1595 1594 1593 1593 1592 1591 1590 1589 1588 1587 1587 1586 1585 1584 1583 1582 1581
1592 1594 1593 1593 1594 1596 1598 1599 1599 1599 1600 1600 1600 1601 1603 1604 1604 1604 1605 1605 1605 1605 1606 1606 1606 1606 1606 1606 1607 1607 1608 1608 1608 1609 1608 1608 1608 1607 1607 1607 1607 1607 1607 1608 1608 1607 1607 1607 1607 1607 1606 1606 1606 1605 1604 1604 1603 1602 1602 1601 1600 1600 1599 1599 1598 1598 1597 1596 1596 1595 1594 1593 1592 1591 1590 1589 1589 1588 1587 1586 1585 1584 1583 1582 1581
1592 1594 1593 1594 1595 1597 1598 1599 1600 1600 1601 1601 1601 1602 1603 1603 1603 1603 1604 1604 1605 1606 1605 1606 1606 1606 1606 1606 1607 1608 1608 1608 1609 1609 1609 1609 1609 1609 1609 1609 1609 1608 1608 1608 1609 1609 1609 1609 1609 1608 1608 1607 1607 1606 1605 1605 1604 1603 1603 1602 1601 1601 1600 1599 1599 1598 1598 1597 1596 1595 1594 1594 1593 1592 1591 1590 1589 1588 1587 1586 1585 1584 1583 1582 1581
1592 1593 1593 1594 1596 1596 1598 1599 1600 1601 1601 1601 1602 1603 1603 1603 1603 1603 1603 1603 1605 1606 1606 1605 1606 1606 1607 1607 1607 1608 1608 1608 1609 1609 1609 1609 1609 1609 1609 1610 1610 1609 1608 1609 1610 1610 1609 1609 1609 1609 1609 1608 1608 1607 1606 1606 1605 1604 1604 1603 1602 1601 1601 1600 1600 1599 1598 1598 1597 1596 1595 1594 1593 1592 1591 1590 1589 1588 1587 1586 1585 1584 1583 1582 1581
1592 1593 1593 1595 1596 1597 1598 1599 1600 1600 1601 1602 1602 1603 1603 1603 1603 1603 1603 1603 1604 1606 1606 1606 1606 1607 1607 1607 1607 1608 1608 1608 1609 1609 1609 1610 1610 1610 1610 1610 1609 1609 1609 1609 1609 1609 1609 1609 1609 1609 1609 1609 1609 1608 1607 1606 1606 1605 1604 1604 1603 1602 1602 1601 1601 1600 1599 1599 1598 1597 1596 1595 1594 1593 1592 1591 1590 1588 1587 1586 1585 1584 1583 1582 1581
1593 1594 1594 1595 1596 1597 1598 1599 1600 1600 1601 1602 1603 1602 1603 1603 1603 1604 1603 1603 1604 1606 1606 1606 1607 1607 1607 1607 1607 1608 1608 1608 1608 1609 1610 1611 1611 1611 1610 1610 1610 1609 1609 1608 1608 1608 1609 1609 1608 1608 1609 1609 1609 1608 1608 1607 1606 1606 1605 1604 1604 1603 1603 1602 1601 1601 1600 1599 1598 1598 1597 1596 1594 1593 1592 1591 1590 1589 1588 1586 1585 1584 1583 1582 1580
1594 1594 1595 1595 1597 1597 1598 1599 1599 1600 1601 1602 1602 1603 1603 1603 1604 1604 1603 1604 1605 1606 1607 1607 1607 1607 1607 1608 1608 1608 1608 1608 1609 1610 1611 1611 1611 1611 1610 1610 1610 1609 1609 1609 1609 1610 1610 1609 1609 1608 1608 1608 1608 1608 1607 1607 1607 1606 1606 1605 1605 1604 1603 1603 1602 1601 1601 1600 1599 1598 1597 1596 1595 1594 1593 1591 1590 1589 1588 1586 1585 1584 1583 1581 1580
1594 1595 1596 1596 1597 1597 1598 1599 1599 1600 1601 1601 1602 1603 1603 1603 1604 1604 1603 1604 1606 1607 1607 1607 1608 1608 1608 1608 1608 1608 1608 1608 1609 1610 1611 1611 1611 1611 1611 1610 1610 1610 1610 1610 1611 1611 1611 1610 1609 1610 1609 1608 1608 1608 1608 1607 1607 1606 1606 1605 1605 1605 1604 1604 1603 1602 1601 1601 1600 1599 1598 1596 1595 1594 1593 1592 1590 1589 1588 1586 1585 1584 1583 1581 1580
1595 1596 1596 1596 1597 1598 1599 1599 1600 1601 1601 1602 1603 1603 1603 1604 1604 1604 1604 1605 1607 1607 1607 1607 1608 1608 1608 1609 1609 1609 1608 1608 1610 1611 1611 1611 1612 1611 1611 1611 1611 1611 1611 1612 1611 1611 1612 1611 1609 1610 1610 1609 1609 1609 1609 1608 1607 1606 1606 1605 1606 1605 1605 1604 1604 1603 1602 1601 1600 1599 1598 1597 1596 1594 1593 1592 1590 1589 1588 1586 1585 1584 1582 1581 1580
1595 1596 1597 1597 1597 1598 1599 1599 1600 1601 1602 1602 1603 1603 1604 1604 1604 1605 1605 1606 1607 1608 1608 1607 1608 1608 1609 1609 1609 1609 1608 1608 1610 1612 1612 1611 1612 1612 1613 1613 1613 1612 1612 1612 1613 1612 1613 1612 1610 1610 1610 1610 1610 1610 1610 1610 1609 1608 1606 1606 1606 1606 1605 1605 1604 1604 1603 1602 1601 1600 1599 1597 1596 1594 1593 1592 1590 1589 1588 1586 1585 1584 1582 1581 1580
1595 1596 1597 1597 1598 1598 1599 1600 1601 1601 1602 1603 1603 1604 1604 1605 1605 1605 1605 1606 1607 1608 1608 1607 1608 1608 1609 1609 1609 1609 1608 1609 1610 1612 1612 1612 1613 1613 1614 1615 1614 1613 1612 1613 1614 1614 1613 1612 1611 1611 1611 1611 1611 1610 1610 1610 1611 1609 1607 1606 1606 1606 1606 1605 1605 1604 1603 1602 1601 1600 1599 1597 1596 1594 1593 1591 1590 1589 1587 1586 1585 1583 1582 1581 1580
1596 1596 1597 1597 1598 1598 1599 1600 1601 1602 1603 1603 1604 1604 1605 1605 1606 1606 1606 1606 1607 1608 1608 1608 1609 1609 1609 1609 1610 1610 1610 1610 1611 1612 1612 1613 1614 1614 1614 1615 1614 1614 1613 1614 1614 1614 1613 1612 1612 1612 1612 1612 1612 1611 1610 1610 1611 1610 1608 1607 1607 1606 1606 1605 1605 1604 1604 1603 1602 1600 1599 1598 1596 1595 1593 1591 1590 1588 1587 1586 1585 1583 1582 1581 1579
1596 1597 1597 1598 1598 1599 1600 1601 1602 1603 1603 1603 1604 1605 1606 1606 1606 1606 1607 1607 1607 1607 1608 1608 1609 1609 1610 1610 1611 1611 1611 1610 1611 1612 1613 1613 1614 1615 1615 1615 1615 1615 1615 1615 1615 1614 1614 1613 1613 1613 1613 1613 1612 1612 1611 1611 1610 1610 1609 1608 1608 1607 1606 1606 1605 1604 1604 1603 1602 1600 1599 1598 1596 1595 1593 1591 1589 1588 1587 1585 1584 1583 1582 1580 1579
1596 1597 1597 1598 1599 1599 1600 1601 1602 1603 1604 1604 1605 1605 1606 1606 1606 1607 1608 1608 1607 1607 1608 1608 1609 1609 1610 1612 1612 1613 1613 1612 1612 1613 1614 1613 1613 1614 1615 1615 1616 1616 1616 1616 1616 1616 1615 1614 1613 1614 1614 1613 1613 1612 1612 1612 1611 1610 1609 1609 1609 1608 1607 1606 1605 1605 1604 1603 1602 1600 1599 1597 1596 1594 1593 1591 1589 1588 1586 1585 1584 1582 1581 1580 1579
1596 1597 1598 1598 1599 1600 1601 1601 1602 1603 1604 1605 1606 1606 1607 1607 1607 1607 1608 1608 1608 1608 1609 1609 1610 1611 1611 1612 1614 1614 1614 1614 1614 1615 1615 1615 1614 1614 1615 1615 1616 1616 1617 1617 1617 1616 1615 1615 1614 1614 1614 1614 1613 1613 1612 1612 1611 1611 1610 1609 1609 1609 1607 1606 1605 1605 1604 1603 1602 1600 1599 1597 1596 1594 1592 1591 1589 1588 1586 1585 1583 1582 1581 1580 1578
1597 1597 1598 1599 1599 1600 1601 1602 1603 1604 1605 1606 1606 1607 1608 1608 1608 1609 1609 1609 1609 1610 1610 1611 1612 1612 1613 1613 1615 1615 1616 1616 1616 1616 1616 1615 1615 1615 1615 1615 1615 1616 1617 1617 1617 1616 1616 1615 1614 1613 1613 1613 1613 1613 1612 1612 1612 1611 1610 1609 1609 1609 1607 1606 1605 1605 1604 1603 1602 1600 1599 1597 1595 1594 1592 1591 1589 1587 1586 1584 1583 1581 1580 1579 1578
1597 1597 1598 1599 1600 1600 1601 1602 1603 1605 1605 1606 1607 1608 1608 1609 1609 1609 1610 1610 1610 1611 1611 1612 1613 1614 1615 1615 1615 1616 1616 1617 1618 1618 1617 1617 1616 1616 1616 1616 1615 1616 1617 1617 1616 1616 1616 1615 1615 1614 1613 1613 1613 1613 1612 1612 1612 1611 1610 1610 1609 1608 1607 1606 1605 1604 1603 1603 1601 1600 1598 1597 1595 1593 1592 1590 1589 1587 1585 1584 1582 1581 1580 1579 1577
1596 1597 1598 1599 1600 1601 1602 1603 1604 1604 1606 1606 1607 1608 1608 1609 1609 1610 1610 1611 1611 1612 1612 1613 1614 1614 1615 1615 1615 1615 1616 1617 1618 1618 1618 1618 1617 1617 1617 1617 1616 1616 1616 1616 1616 1616 1615 1615 1615 1615 1614 1614 1614 1613 1613 1612 1611 1610 1610 1609 1609 1608 1607 1606 1604 1604 1603 1602 1601 1600 1598 1596 1595 1593 1592 1590 1588 1587 1585 1583 1582 1580 1579 1578 1576
1596 1597 1598 1599 1600 1601 1601 1603 1604 1604 1605 1606 1606 1607 1608 1608 1609 1610 1610 1611 1612 1613 1613 1613 1614 1614 1615 1615 1615 1615 1615 1616 1617 1618 1618 1618 1617 1617 1617 1617 1617 1617 1617 1616 1616 1615 1615 1615 1615 1615 1614 1614 1614 1613 1613 1612 1611 1610 1609 1608 1608 1607 1606 1605 1604 1603 1602 1601 1600 1599 1597 1596 1594 1593 1591 1590 1588 1586 1585 1583 1581 1580 1578 1577 1575
1595 1596 1597 1598 1599 1600 1601 1602 1603 1604 1605 1606 1606 1607 1608 1608 1609 1610 1611 1611 1612 1613 1614 1614 1614 1615 1615 1615 1616 1616 1615 1614 1615 1616 1617 1617 1617 1616 1616 1617 1617 1617 1617 1616 1615 1615 1615 1615 1614 1614 1614 1614 1613 1613 1612 1611 1610 1609 1608 1608 1607 1607 1606 1604 1603 1602 1601 1600 1600 1598 1597 1595 1594 1593 1591 1590 1588 1586 1584 1583 1581 1579 1577 1576 1575
1595 1596 1597 1598 1599 1600 1601 1602 1603 1603 1604 1605 1606 1606 1607 1608 1610 1610 1611 1612 1613 1614 1615 1615 1616 1616 1616 1616 1615 1615 1614 1614 1614 1616 1617 1617 1617 1616 1615 1616 1616 1616 1616 1616 1615 1614 1614 1614 1614 1614 1614 1613 1613 1612 1611 1610 1609 1608 1607 1607 1606 1605 1604 1603 1602 1601 1600 1600 1599 1598 1597 1595 1594 1592 1591 1589 1587 1586 1584 1582 1580 1578 1577 1575 1574
1595 1596 1597 1598 1598 1599 1600 1601 1602 1603 1604 1604 1606 1606 1607 1609 1609 1610 1611 1612 1613 1613 1615 1616 1616 1616 1616 1616 1615 1613 1613 1613 1614 1615 1617 1617 1616 1615 1615 1615 1615 1615 1615 1615 1614 1614 1614 1614 1614 1613 1613 1612 1612 1611 1610 1609 1608 1607 1607 1606 1605 1604 1603 1603 1601 1600 1599 1599 1598 1597 1596 1595 1593 1592 1590 1588 1587 1585 1583 1581 1580 1578 1576 1574 1573
1595 1596 1597 1597 1598 1599 1600 1601 1602 1603 1603 1604 1605 1606 1607 1608 1609 1610 1610 1611 1612 1613 1614 1615 1616 1616 1616 1616 1615 1613 1612 1613 1615 1616 1616 1616 1616 1615 1614 1614 1615 1614 1614 1614 1613 1613 1613 1613 1613 1612 1612 1612 1611 1610 1609 1608 1607 1607 1606 1605 1604 1603 1602 1602 1601 1599 1599 1598 1597 1597 1596 1594 1593 1591 1589 1588 1586 1584 1583 1581 1579 1577 1575 1573 1572
1594 1595 1596 1597 1598 1598 1599 1600 1601 1602 1603 1604 1605 1605 1606 1607 1608 1609 1610 1611 1612 1612 1613 1614 1615 1616 1616 1616 1616 1615 1614 1614 1615 1616 1616 1616 1615 1615 1614 1614 1614 1614 1614 1613 1613 1612 1611 1611 1611 1611 1611 1610 1609 1609 1608 1607 1607 1607 1606 1604 1604 1603 1602 1601 1600 1599 1598 1597 1596 1596 1595 1593 1592 1590 1589 1587 1585 1584 1582 1580 1578 1576 1575 1573 1571
1594 1595 1596 1597 1598 1598 1599 1600 1601 1602 1603 1603 1604 1605 1606 1607 1607 1608 1609 1610 1611 1612 1612 1613 1614 1615 1616 1616 1616 1616 1615 1615 1615 1615 1615 1615 1614 1614 1614 1613 1613 1614 1613 1613 1612 1611 1611 1610 1610 1610 1609 1609 1608 1607 1606 1606 1606 1605 1605 1604 1603 1603 1601 1599 1599 1598 1597 1596 1596 1595 1594 1593 1591 1590 1588 1586 1585 1583 1581 1579 1577 1576 1574 1572 1570
1594 1594 1595 1596 1597 1598 1599 1600 1600 1601 1602 1603 1604 1604 1605 1606 1607 1608 1608 1609 1610 1611 1612 1612 1613 1614 1615 1615 1615 1615 1615 1615 1615 1614 1614 1614 1613 1613 1613 1613 1613 1613 1613 1612 1611 1610 1610 1609 1609 1609 1608 1607 1607 1606 1605 1605 1605 1604 1603 1602 1602 1601 1599 1598 1597 1597 1596 1596 1595 1594 1593 1592 1590 1589 1587 1586 1584 1582 1581 1579 1577 1575 1573 1571 1570
1593 1594 1595 1596 1597 1597 1598 1599 1600 1601 1602 1602 1603 1604 1605 1606 1606 1607 1608 1608 1609 1610 1611 1611 1612 1613 1613 1613 1614 1614 1614 1614 1614 1614 1614 1613 1613 1613 1613 1612 1612 1612 1612 1611 1610 1609 1609 1609 1608 1607 1607 1606 1606 1605 1605 1604 1604 1603 1602 1601 1600 1599 1598 1597 1596 1596 1596 1595 1594 1593 1592 1591 1589 1588 1586 1585 1583 1581 1580 1578 1576 1574 1572 1571 1569
1593 1594 1595 1595 1596 1597 1598 1599 1600 1601 1601 1602 1602 1603 1604 1605 1605 1606 1607 1607 1608 1609 1609 1610 1611 1612 1612 1612 1612 1612 1612 1612 1612 1612 1613 1613 1613 1612 1612 1612 1612 1612 1611 1610 1610 1609 1608 1608 1608 1607 1606 1605 1605 1605 1604 1603 1603 1602 1601 1600 1599 1598 1597 1596 1596 1596 1595 1594 1593 1592 1590 1589 1588 1587 1585 1584 1582 1580 1579 1577 1575 1573 1571 1570 1568
1593 1594 1594 1595 1596 1597 1598 1599 1600 1600 1601 1602 1602 1603 1603 1604 1605 1605 1606 1606 1607 1607 1608 1608 1609 1609 1610 1610 1610 1610 1611 1611 1611 1611 1612 1612 1612 1612 1612 1611 1611 1611 1611 1610 1609 1608 1607 1607 1607 1606 1605 1605 1604 1604 1603 1602 1602 1601 1600 1599 1598 1597 1597 1596 1595 1595 1594 1593 1592 1590 1589 1588 1587 1585 1584 1582 1581 1579 1578 1576 1574 1572 1571 1569 1567
1591 1593 1594 1595 1595 1596 1597 1598 1599 1599 1600 1601 1602 1602 1602 1603 1604 1604 1605 1605 1605 1606 1606 1607 1607 1608 1608 1609 1609 1609 1610 1610 1610 1611 1611 1611 1611 1611 1611 1610 1610 1610 1610 1610 1609 1608 1607 1606 1606 1605 1604 1604 1603 1603 1602 1601 1601 1600 1599 1598 1597 1596 1595 1594 1594 1593 1593 1592 1591 1589 1588 1586 1585 1584 1582 1581 1580 1578 1576 1575 1573 1572 1570 1568 1567
1591 1592 1594 1594 1595 1596 1596 1597 1598 1599 1599 1599 1600 1601 1602 1602 1603 1603 1604 1604 1604 1604 1605 1605 1606 1606 1607 1607 1608 1608 1609 1609 1609 1609 1609 1610 1610 1610 1610 1609 1609 1609 1609 1608 1608 1607 1606 1605 1604 1604 1603 1603 1602 1601 1601 1601 1600 1599 1598 1597 1596 1595 1594 1593 1593 1593 1592 1591 1589 1588 1587 1585 1583 1582 1581 1580 1578 1577 1575 1573 1572 1570 1569 1568 1566
1591 1592 1593 1594 1594 1595 1596 1596 1597 1598 1598 1599 1599 1600 1601 1602 1602 1603 1603 1604 1604 1604 1604 1605 1605 1606 1606 1606 1607 1607 1608 1608 1608 1608 1608 1609 1609 1609 1609 1608 1608 1608 1607 1607 1606 1606 1605 1604 1603 1603 1603 1602 1601 1600 1600 1600 1599 1598 1596 1596 1595 1593 1593 1592 1592 1591 1590 1589 1588 1587 1585 1583 1582 1581 1579 1578 1577 1575 1573 1571 1570 1569 1568 1567 1565
1590 1591 1592 1593 1594 1595 1595 1596 1597 1597 1598 1598 1599 1599 1600 1601 1601 1602 1603 1603 1603 1603 1604 1604 1604 1605 1605 1605 1605 1606 1606 1607 1607 1607 1607 1608 1608 1608 1608 1607 1607 1607 1606 1605 1605 1604 1604 1603 1602 1602 1602 1601 1600 1600 1600 1599 1598 1596 1595 1594 1593 1592 1591 1590 1590 1589 1588 1587 1586 1585 1583 1581 1580 1579 1578 1576 1574 1573 1571 1569 1568 1567 1566 1565 1564
1590 1591 1592 1593 1594 1594 1595 1596 1596 1597 1597 1598 1599 1599 1599 1600 1601 1601 1602 1602 1603 1603 1603 1603 1604 1604 1604 1604 1605 1605 1605 1605 1605 1606 1606 1606 1606 1606 1607 1606 1606 1605 1605 1604 1604 1603 1603 1602 1602 1601 1600 1600 1600 1599 1599 1598 1597 1595 1594 1592 1591 1591 1591 1590 1589 1588 1586 1585 1583 1582 1581 1580 1579 1577 1576 1574 1572 1570 1569 1567 1566 1565 1564 1564 1563
1590 1591 1591 1592 1593 1594 1595 1595 1596 1596 1597 1598 1598 1598 1599 1599 1600 1600 1601 1602 1602 1602 1603 1603 1603 1603 1603 1603 1604 1604 1604 1604 1604 1605 1605 1605 1605 1605 1605 1605 1604 1604 1604 1603 1603 1602 1602 1601 1600 1600 1599 1599 1598 1598 1597 1597 1595 1594 1594 1593 1591 1590 1589 1588 1587 1586 1584 1582 1581 1580 1579 1578 1576 1574 1573 1571 1570 1568 1566 1565 1564 1563 1563 1562 1561
1589 1590 1591 1591 1592 1593 1594 1594 1595 1596 1596 1597 1597 1597 1598 1598 1599 1599 1600 1600 1601 1601 1602 1602 1603 1603 1603 1603 1603 1604 1604 1603 1603 1604 1604 1604 1604 1604 1604 1603 1603 1603 1602 1602 1601 1601 1600 1599 1599 1598 1598 1597 1597 1596 1596 1596 1595 1594 1594 1592 1590 1589 1588 1586 1586 1585 1583 1580 1578 1577 1577 1575 1573 1571 1570 1569 1567 1566 1565 1563 1562 1562 1561 1561 1560
1589 1590 1591 1591 1592 1593 1593 1593 1595 1595 1595 1595 1596 1596 1597 1598 1598 1598 1598 1599 1600 1600 1601 1601 1602 1602 1602 1602 1603 1603 1603 1602 1603 1603 1602 1603 1602 1602 1602 1602 1602 1601 1601 1600 1600 1600 1599 1598 1598 1597 1597 1596 1596 1596 1595 1594 1594 1593 1592 1590 1589 1587 1586 1584 1582 1582 1581 1579 1577 1575 1574 1573 1571 1569 1567 1566 1565 1564 1563 1562 1561 1560 1560 1559 1558
1587 1588 1590 1591 1592 1592 1592 1593 1594 1593 1593 1593 1594 1595 1596 1597 1597 1597 1597 1598 1598 1599 1599 1600 1600 1600 1600 1601 1601 1602 1602 1601 1601 1601 1601 1601 1600 1600 1600 1600 1600 1600 1599 1599 1599 1598 1598 1597 1596 1596 1596 1595 1595 1594 1594 1593 1592 1591 1590 1589 1587 1586 1584 1582 1580 1579 1579 1578 1576 1573 1570 1570 1569 1567 1565 1564 1563 1562 1561 1560 1560 1559 1558 1557 1556
1583 1585 1587 1588 1589 1589 1590 1591 1592 1591 1591 1592 1593 1594 1595 1595 1596 1596 1596 1597 1597 1598 1599 1599 1599 1599 1599 1599 1599 1599 1599 1598 1598 1598 1598 1598 1598 1598 1598 1598 1598 1598 1597 1597 1597 1597 1596 1595 1595 1594 1594 1594 1593 1593 1592 1591 1590 1589 1588 1587 1586 1584 1583 1581 1579 1577 1577 1577 1575 1571 1568 1567 1567 1565 1563 1562 1561 1560 1560 1559 1559 1558 1556 1555 1554
1583 1584 1585 1586 1587 1587 1588 1589 1589 1589 1590 1591 1592 1593 1593 1594 1594 1595 1596 1596 1597 1598 1598 1598 1598 1598 1597 1597 1597 1596 1595 1595 1596 1596 1596 1596 1596 1596 1596 1596 1596 1596 1596 1596 1595 1595 1594 1594 1593 1592 1592 1592 1591 1591 1591 1590 1588 1587 1585 1585 1584 1583 1581 1580 1578 1576 1575 1575 1574 1570 1566 1564 1565 1563 1561 1560 1560 1559 1559 1558 1557 1556 1555 1554 1552
1583 1583 1583 1584 1585 1586 1587 1588 1588 1588 1588 1589 1590 1591 1592 1592 1593 1594 1595 1595 1595 1596 1597 1597 1596 1596 1595 1594 1594 1594 1594 1595 1595 1594 1594 1594 1594 1594 1594 1594 1594 1594 1594 1593 1594 1593 1593 1592 1591 1590 1590 1590 1590 1589 1589 1588 1587 1585 1584 1582 1581 1581 1579 1578 1576 1574 1573 1573 1573 1569 1564 1563 1563 1561 1559 1559 1558 1557 1557 1556 1555 1554 1553 1552 1551
1581 1582 1582 1583 1583 1584 1585 1586 1586 1586 1587 1587 1588 1589 1590 1591 1592 1592 1593 1593 1594 1594 1595 1594 1593 1593 1593 1593 1592 1592 1593 1593 1593 1593 1593 1593 1592 1592 1592 1592 1592 1592 1592 1592 1592 1591 1591 1590 1589 1588 1588 1588 1588 1587 1586 1586 1585 1584 1582 1581 1580 1578 1576 1574 1573 1572 1571 1571 1571 1569 1564 1562 1562 1560 1558 1557 1555 1554 1554 1553 1552 1552 1551 1550 1548
1578 1579 1580 1581 1581 1582 1583 1583 1584 1584 1585 1585 1586 1586 1587 1589 1590 1591 1591 1592 1592 1593 1593 1591 1590 1591 1591 1591 1591 1590 1591 1591 1591 1591 1591 1591 1591 1590 1590 1590 1590 1590 1590 1591 1590 1589 1589 1588 1587 1586 1585 1585 1585 1585 1584 1583 1582 1581 1580 1578 1577 1575 1573 1571 1569 1569 1568 1568 1568 1567 1563 1561 1560 1558 1555 1554 1552 1550 1550 1550 1549 1549 1548 1547 1546
1575 1576 1577 1578 1578 1579 1581 1581 1581 1582 1583 1583 1584 1584 1585 1586 1588 1588 1589 1590 1590 1591 1590 1589 1588 1589 1589 1589 1589 1588 1589 1589 1589 1589 1589 1589 1589 1589 1588 1588 1588 1588 1588 1588 1587 1587 1586 1586 1585 1584 1584 1584 1583 1582 1582 1581 1580 1578 1577 1575 1574 1572 1570 1568 1566 1566 1566 1565 1565 1564 1561 1559 1557 1555 1552 1550 1549 1548 1547 1546 1546 1546 1544 1543 1543
1574 1574 1575 1576 1576 1576 1578 1579 1579 1580 1581 1582 1582 1583 1584 1585 1586 1586 1587 1588 1588 1588 1588 1586 1586 1586 1586 1586 1587 1586 1587 1587 1587 1587 1587 1587 1587 1586 1586 1585 1585 1585 1585 1584 1583 1583 1583 1583 1583 1583 1582 1582 1580 1580 1579 1578 1577 1576 1575 1574 1572 1571 1569 1567 1565 1564 1563 1563 1563 1561 1559 1557 1555 1553 1550 1547 1544 1544 1544 1544 1542 1542 1541 1540 1539
1573 1573 1574 1574 1574 1574 1576 1577 1578 1579 1580 1580 1581 1581 1582 1583 1584 1584 1585 1585 1586 1586 1585 1585 1584 1584 1584 1584 1584 1584 1584 1585 1585 1585 1585 1585 1584 1584 1583 1583 1583 1582 1582 1581 1581 1580 1580 1580 1580 1580 1579 1578 1577 1577 1576 1575 1574 1574 1573 1572 1571 1569 1567 1566 1564 1563 1562 1561 1560 1559 1557 1555 1553 1551 1549 1545 1540 1538 1540 1541 1539 1538 1538 1536 1535